Regional Weather Roundup
Issued by NWS Green Bay, WI

Home | Current Version | Previous Version | Graphics & Text | Print | Product List | Glossary Off
Versions: 1 2 3 4 5 6 7 8 9 10 11 12 13 14 15 16 17 18 19 20 21 22 23 24 25 26 27 28 29 30 31 32 33 34 35 36 37 38 39 40 41 42 43 44 45 46 47 48 49 50

000
ASUS43 KGRB 311200
RWRGRB

NORTH-CENTRAL AND NORTHEAST WISCONSIN REGIONAL WEATHER ROUNDUP
NATIONAL WEATHER SERVICE GREEN BAY WI
700 AM CDT WED AUG 31 2016

WIZ005-009-010>012-018-019-311300-
NORTH CENTRAL WISCONSIN

CITY           SKY/WX    TMP DP  RH WIND       PRES   REMARKS
IRONWOOD       CLEAR     47  47 100 CALM      30.19S
MANITOWISH WTR NOT AVBL
ARBOR VITAE    NOT AVBL
EAGLE RIVER    NOT AVBL
LAND O LAKES   NOT AVBL
RHINELANDER    CLEAR     54  54 100 CALM      30.17S
PHILLIPS       CLEAR     46  46 100 CALM      30.18R
ANTIGO         NOT AVBL
TOMAHAWK       NOT AVBL
MERRILL        CLEAR     44  44 100 CALM      30.18R
$$

WIZ013-073-311300-
NORTHEAST WISCONSIN

CITY           SKY/WX    TMP DP  RH WIND       PRES   REMARKS
IRON MOUNTAIN  CLEAR     50  47  89 NW3       30.13R
MARINETTE      PTCLDY   N/A N/A N/A NW6       30.12S
$$

WIZ017-030-035>037-045-311300-
CENTRAL WISCONSIN

CITY           SKY/WX    TMP DP  RH WIND       PRES   REMARKS
MEDFORD        NOT AVBL
WAUSAU         PTCLDY    53  51  93 NW5       30.15R
MOSINEE        CLEAR     52  52 100 NW5       30.17R
MARSHFIELD     CLEAR     53  49  86 NW5       30.16R
WISC RAPIDS    CLEAR     54  52  93 N5        30.17R
STEVENS POINT  NOT AVBL
WAUPACA        NOT AVBL
SHAWANO        NOT AVBL
CLINTONVILLE   CLEAR     55  50  82 N5        30.14R
WAUTOMA        CLEAR     52  51  97 CALM      30.15R
$$

WIZ038-039-048-051-311300-
FOX VALLEY

CITY           SKY/WX    TMP DP  RH WIND       PRES   REMARKS
NWS GREEN BAY  CLEAR     55  55 100 NW3       30.12R
APPLETON       MOCLDY    57  55  94 NW7       30.12R
OSHKOSH        PTCLDY    60  57  89 N6        30.12R
FOND DU LAC    CLEAR     60  57  89 N6        30.12R
$$

WIZ022-050-052-311300-
EAST CENTRAL WISCONSIN

CITY           SKY/WX    TMP DP  RH WIND       PRES   REMARKS
EPHRAIM        NOT AVBL
WASHINGTON ISL NOT AVBL
STURGEON BAY   CLEAR     61  57  87 NW6       30.12R
MANITOWOC      NOT AVBL
SHEBOYGAN      CLEAR     59  53  80 NW7       30.11R
$$

LMZ563-521-522-541>543-311300-
LAKESHORE

STATION/POSITION TIME  TEMP    WIND        PRES    VSBY  WAVE
                       AIR SEA DIR/SP/G                  HT/PER
                 (UTC) (F)     (DEG/KT/KT) (MB)    (MI)  (FT/S)
SHEBOYGAN LKSHOR 1100   62     340/ 13/ 16 1018.3R
KEWAUNEE LKSHORE 1100   58     310/  4/  5 1018.6S
ALGOMA MARINA    1115          310/  4/  6   N/A
NORTHPORT PIER   1100   66     340/  9/ 11 1019.0S
N MID LAKE BUOY  1050   66 71  350/ 12/ 16 1018.0R         2/ 4
SISTER BAY LKSHO 1052   64      20/  6/  9   N/A
CHAMBERS ISLAND  1100   62     310/  5/  8 1019.3S
MENOMINEE LKSHOR 1100   57     300/  5/  6 1018.8R
$$




USA.gov is the U.S. government's official web portal to all federal, state and local government web resources and services.